> Flugplatz > 
Bitte achten Sie beim Anflug auf mögliche Fallschirmspringer auf der Nord seite desPlatzes, kontaktieren Sie zur Sicherheit den Flugleiter auf Leutkirch INFO 122,875.
Zollabfertigung:
für Ein- und Ausflug bei Voranmeldung mindestens 3 Stunden, nur Personenverkehr – keine Warenabfertigung.
Günstig Tanken:
Avgas 100 II · Super 95 · Jet A1 · Diesel
Achtung! Sommer-Öffnungszeiten:
15.03.2016 – 31.10.2016:
Täglich 09:00 – SS+30/20:00 (loc)
So/Hol  10:30 – SS+30/20:00 (loc)

Weitere Informationen finden Sie in unserem Newsbereich.

Nutzen Sie unsere Online-Anmeldung zur Zoll- und Passkontrolle.
Aktuelles:
Sicherheits- und Servicehinweise:
2016/07/29 15:20 EDJA 291520Z 24011KT 9999 FEW053 BKN150 24/12 Q1016
2016/07/29 15:20 EDNY 291520Z 25006KT 9999 FEW045 26/15 Q1015
2016/07/29 15:20 ETHL 291520Z 26009KT 9999 SCT048 25/13 Q1016 BLU+
Aktuelle METAR Daten (Memmingen, Friedrichshafen, Laupheim):